Location: Borgo
(42.3939°N, 9.2791°E)
Time: 10:55:03
(UTC+00:00)

Cosmos 1340 - Visible Passes

Search period start: 14 May 2021 00:00
Search period end: 24 May 2021 00:00
Orbit: 499 x 504 km, 81.2° (Epoch: 14 May)

Date Brightness Start Highest point End Pass type
(mag) Time Alt. Az. Time Alt. Az. Time Alt. Az.
14 May 4.7 01:30:49 17° SE 01:32:23 22° E 01:35:21 10° NE visible
14 May 4.1 03:05:33 14° WSW 03:07:52 23° WNW 03:10:53 10° NNW visible
15 May 5.0 01:11:47 14° ESE 01:13:04 17° E 01:15:30 10° NE visible
15 May 3.7 02:46:31 20° WSW 02:48:22 30° WNW 02:51:42 10° NNW visible
16 May 5.3 00:52:44 11° ESE 00:53:44 12° E 00:55:21 10° ENE visible
16 May 3.2 02:27:28 28° SW 02:28:53 40° WNW 02:32:27 10° N visible
17 May 2.8 02:08:23 40° SW 02:09:25 56° WNW 02:13:07 10° N visible
18 May 2.5 01:49:16 56° SSW 01:49:58 79° W 01:53:44 10° N visible
19 May 2.6 01:30:09 66° SSE 01:30:33 74° E 01:34:17 10° NNE visible
20 May 3.1 01:11:00 52° ESE 01:11:08 53° E 01:14:48 10° NNE visible
20 May 5.0 02:46:13 10° W 02:47:03 11° WNW 02:47:53 10° NW visible
21 May 3.7 00:51:50 38° E 00:51:50 38° E 00:55:14 10° NNE visible
21 May 4.7 02:26:33 13° W 02:27:29 14° WNW 02:29:32 10° NW visible
22 May 4.3 00:32:38 27° E 00:32:38 27° E 00:35:35 10° NNE visible
22 May 4.4 02:07:22 18° W 02:07:56 18° WNW 02:10:37 10° NNW visible
23 May 4.7 00:13:26 20° E 00:13:26 20° E 00:15:50 10° NE visible
23 May 4.0 01:48:09 24° W 01:48:24 24° WNW 01:51:31 10° NNW visible
23 May 5.1 23:54:13 15° ENE 23:54:13 15° ENE 23:55:56 10° NE visible
